Regional Weather Roundup
Issued by NWS

Home | Current Version | Previous Version | Text Only | Print | Product List | Glossary On
Versions: 1 2 3 4 5 6 7 8 9 10 11 12 13 14 15 16 17 18 19 20 21 22 23 24 25 26 27 28 29 30 31 32 33 34 35 36 37 38 39 40 41 42 43 44 45 46 47 48 49 50
000
ASUS43 KMKX 200700
RWRWI

WISCONSIN REGIONAL WEATHER ROUNDUP
NATIONAL WEATHER SERVICE MILWAUKEE/SULLIVAN WI
200 AM CDT SAT SEP 20 2014

NOTE: "FAIR" INDICATES FEW OR NO CLOUDS BELOW 12,000 FEET WITH NO
SIGNIFICANT WEATHER AND/OR OBSTRUCTIONS TO VISIBILITY.

WIZ001-002-006>008-014>016-023>028-200800-
NORTHWEST WISCONSIN

CITY           SKY/WX    TMP DP  RH WIND       PRES   REMARKS
SUPERIOR ARPT  FOG       57  57  99 CALM      29.61S VSB 1/4
ASHLAND        PTCLDY    66  62  87 SW7       29.61F
HAYWARD        CLEAR     66  64  93 SW8       29.66F
SIREN          PTCLDY    65  64  97 S6        29.65S
RICE LAKE      CLOUDY    67  64  90 SW8       29.70R
LADYSMITH      CLOUDY    65  63  90 S7        29.71F
EAU CLAIRE     CLOUDY    69  64  84 SW12      29.71R
MENOMONIE      CLOUDY    71  65  83 S13G20    29.69S
NEW RICHMOND   CLOUDY    69  67  93 SW10      29.68S
OSCEOLA        CLOUDY    69  69  99 S5        29.69S
$$

WIZ003>005-009-010-017-018-200800-
NORTH CENTRAL WISCONSIN

CITY           SKY/WX    TMP DP  RH WIND       PRES   REMARKS
WOODRUFF       CLOUDY    64  60  84 SW9       29.69F
RHINELANDER    CLOUDY    62  57  83 SW13G22   29.70F
EAGLE RIVER    CLOUDY    63  55  76 SW10G16   29.69F
LAND O LAKES   CLOUDY    64  58  79 SW6       29.70S
PHILLIPS       CLOUDY    64  61  88 SW10      29.68F
TOMAHAWK       CLOUDY    63  57  83 S3        29.72S
MEDFORD        CLOUDY    62  59  89 SW9       29.71F
MERRILL        CLOUDY    63  58  84 SW7       29.72F
$$

WIZ029-030-035-036-043>047-200800-
CENTRAL WISCONSIN

CITY           SKY/WX    TMP DP  RH WIND       PRES   REMARKS
WAUSAU         MOCLDY    64  57  78 SW10      29.70F
MOSINEE        CLOUDY    63  59  88 S12G17    29.74F
MARSHFIELD     LGT RAIN  65  59  81 SW10      29.72F
STEVENS POINT  CLOUDY    63  55  76 S8        29.74F
WAUPACA        HVY RAIN  66  56  70 SW10G18   29.76F
WAUTOMA        NOT AVBL
WISC RAPIDS    CLOUDY    64  59  83 SW12      29.77S
CAMP DOUGLAS   TSTM      64  64 100 SW17G26   29.80R VSB 1
$$

WIZ011>013-019>022-031-037>040-048>050-200800-
NORTHEAST WISCONSIN

CITY           SKY/WX    TMP DP  RH WIND       PRES   REMARKS
ANTIGO         CLOUDY    61  56  84 SW14G20   29.74S
STURGEON BAY   CLOUDY    61  52  72 S12       29.76R
GREEN BAY      CLOUDY    65  55  70 SW13G22   29.75F
MANITOWOC      NOT AVBL
APPLETON       MOCLDY    63  52  67 SW16G23   29.78F
CLINTONVILLE   CLOUDY    63  54  72 SW9       29.73F
OSHKOSH        MOCLDY    65  55  70 SW15G22   29.76F
$$

WIZ032>034-041-042-053>061-200800-
SOUTHWEST WISCONSIN

CITY           SKY/WX    TMP DP  RH WIND       PRES   REMARKS
LA CROSSE      LGT RAIN  67  64  90 E8        29.75F FOG
SPARTA         NOT AVBL
VIROQUA        CLOUDY    65  64  97 W7        29.82R
BOSCOBEL       CLOUDY    69  59  70 SW13G22   29.81F
PRAIRIE DU CHI CLOUDY    68  59  71 S13       29.81S
PLATTEVILLE    FAIR      65  58  80 S13       29.87F
$$

WIZ056-057-062-063-064-067-068-200800-
SOUTH CENTRAL WISCONSIN

CITY           SKY/WX    TMP DP  RH WIND       PRES   REMARKS
BARABOO/DELLS  CLOUDY    66  55  67 SW15G25   29.79F
LONE ROCK      NOT AVBL
WATERTOWN      PTCLDY    64  55  72 S9        29.84F
MADISON        MOCLDY    66  55  67 S10G21    29.82F
MIDDLETON      FAIR      66  55  66 SW13G20   29.83F
MONROE         MOCLDY    61  55  82 S16       29.87F
JANESVILLE     PTCLDY    63  52  67 S12       29.88F
$$

WIZ051-052-058>065-066-070>072-200800-
SOUTHEAST WISCONSIN

CITY           SKY/WX    TMP DP  RH WIND       PRES   REMARKS
MILWAUKEE      PTCLDY    65  50  58 SW17      29.85F
WAUKESHA       CLEAR     61  50  67 SW14      29.88F
MILWAUKEE/TIMM CLEAR     63  48  59 SW10      29.86F
RACINE         CLEAR     65  50  58 SW13      29.89S
BURLINGTON     CLEAR     60  50  70 SW13G18   29.89F
KENOSHA        CLEAR     65  52  62 SW13G23   29.90R
FOND DU LAC    PTCLDY    65  53  65 SW17G25   29.78F
SHEBOYGAN      PTCLDY    63  52  67 SW13G18   29.80F
WEST BEND      PTCLDY    64  50  59 SW16G24   29.83F
JUNEAU         PTCLDY    63  54  72 S16       29.84F
$$

LSZ147-162-200800-
LAKE SUPERIOR

STATION/POSITION TIME  TEMP    WIND        PRES    WAVE
                       AIR SEA DIR/SP/G            HT/PER
                 (UTC) (F)     (DEG/KT/KT) (MB)    (FT/S)
W MID LAKE BUOY  0550   55 48  270/  6/  6 1002.0F   1
DEVILS ISLAND    0600   60     230/ 10/ 12 1002.5F
PORT WING        0640   65     160/  3/  5 1003.0S
SAXON HARBOR     0600   69     190/  6/ 10 1003.4R
$$

LMZ867-665-643>646-200800-
LAKE MICHIGAN

STATION/POSITION TIME  TEMP    WIND        PRES    WAVE
                       AIR SEA DIR/SP/G            HT/PER
                 (UTC) (F)     (DEG/KT/KT) (MB)    (FT/S)
N MID LAKE BUOY  0550   61 58  210/ 25/ 31 1007.4F  10/ 8
NORTHPORT PIER   0600   61     160/  8/ 13 1007.1F
KEWAUNEE LAKESHO 0600   58     180/ 13/ 15 1007.9F
SHEBOYGAN LAKESH 0600   60 54  180/ 16/ 17 1010.1F
PORT WASHINGTON  0600   64     210/  7/ 10 1011.2F
ATWATER BUOY     0600   65     210/ 16/ 19 1012.5F
MILWAUKEE LAKESH 0600   65     220/ 12/ 14   N/A
S MID LAKE BUOY  0550   66 64  190/ 21/ 25 1012.2F   4/ 5
KENOSHA   LAKESH 0600   66     200/ 11/ 17 1011.9
$$

TC  - TEMPERATURE IN CELSIUS
VSB - VISIBILITY IN STATUTE MILES
WCI - WIND CHILL INDEX
HX  - HEAT INDEX




USA.gov is the U.S. government's official web portal to all federal, state and local government web resources and services.